Lexington Weather

Lexington, Massachusetts, USA

72°F
9/22/2021 2:25pm 
  • Lexington Conditions: Light rain, Mist, Overcast
  • Temperature: 71.8°F / 22.1°CColder 3.2°F than last hour.
  • Dew Point: 69.1°FIncreased 0.7°Fsince last hour.
  • Relative Humidity: 91%Increased 11.0% since last hour.
  • Wind: Wind from WNW WNW 4 mph, 10-min avg: 4 mph, gust: 13 mph
  • Barometer: 30.08 inFalling 0.02  inHg/hr Falling Slowly
  • Visibility: 2 miles
  • Rain Today: 0.00 in
  •   

Regional Weather Roundup
for Boston / Norton, MA

        
000
ASUS41 KBOX 160404
RWRBOX

REGIONAL WEATHER ROUNDUP
NATIONAL WEATHER SERVICE BOSTON/NORTON MA
1200 AM EDT THU SEP 16 2021

NOTE:  "FAIR" INDICATES FEW OR NO CLOUDS BELOW 12,000 FEET WITH NO 
SIGNIFICANT WEATHER AND/OR OBSTRUCTIONS TO VISIBILITY.

MAZALL-160500-
EASTERN MASSACHUSETTS
  
CITY           SKY/WX    TMP DP  RH WIND       PRES   REMARKS
BOSTON         MOCLDY    76  64  66 NW7       30.05R                  
BEVERLY        MOCLDY    70  34  26 W3        30.04R                  
LAWRENCE       MOCLDY    68  67  96 CALM      30.07R                  
BEDFORD        MOCLDY    68  67  96 CALM      30.04R                  
BLUE HILL      NOT AVBL                                               
NORWOOD        PTCLDY    73  69  87 W3        30.05R                  
MARSHFIELD     CLOUDY    72  70  94 SW8       30.04S                  
PLYMOUTH       CLOUDY    72  69  90 SW7       30.07R                  
TAUNTON        MOCLDY    72  69  90 S5        30.06R                  
NEW BEDFORD    CLOUDY    74  71  91 SW9       30.07R                  
$$

MAZALL-160500-
CAPE COD AND THE ISLANDS
  
CITY           SKY/WX    TMP DP  RH WIND       PRES   REMARKS
FALMOUTH       PTCLDY    73  72  94 SW20      30.07S                  
HYANNIS        PTCLDY    74  73  97 SW12      30.07R                  
CHATHAM        CLOUDY    73  72  96 SW7       30.09S                  
PROVINCETOWN   PTCLDY    70  69  97 SW7       30.08R                  
NANTUCKET      MOCLDY    74  71  91 S10       30.10R                  
MARTHAS VNYRD  MOCLDY    72  72 100 SW8       30.08R                  
$$
 
MAZALL-160500-
CENTRAL AND WESTERN MASSACHUSETTS
  
CITY           SKY/WX    TMP DP  RH WIND       PRES   REMARKS
WORCESTER      MOCLDY    66  63  90 W7        30.09R                  
FITCHBURG      MOCLDY    67  66  97 CALM      30.07R FOG              
ORANGE         CLOUDY    68  66  93 NW7       30.10R                  
SPRINGFIELD    MOCLDY    68  68 100 CALM      30.05S                  
WESTFIELD      MOCLDY    68  68 100 NW3       30.06S                  
NORTH ADAMS    LGT RAIN  65  62  90 W3        30.11R                  
PITTSFIELD     LGT RAIN  63  60  90 W5        30.11R                  
$$
 
RIZALL-160500-
RHODE ISLAND
  
CITY           SKY/WX    TMP DP  RH WIND       PRES   REMARKS
PROVIDENCE     MOCLDY    72  69  90 S6        30.07R                  
NEWPORT        CLOUDY    72  72 100 VRB5      30.07R                  
BLOCK ISLAND   PTCLDY    71  69  93 SW13      30.07S                  
SMITHFIELD     MOCLDY    70  69  97 CALM      30.07S                  
WESTERLY       CLOUDY    71  71 100 CALM      30.07R                  
$$
 
CTZALL-160500-
CONNECTICUT
  
CITY           SKY/WX    TMP DP  RH WIND       PRES   REMARKS
BRADLEY INTL   CLOUDY    70  66  87 CALM      30.05F                  
HARTFORD       MOCLDY    70  68  93 CALM      30.04F                  
BRIDGEPORT     MOCLDY    76  69  79 CALM      30.04S                  
DANBURY        MOCLDY    70  66  87 CALM      30.07F                  
GROTON         CLOUDY    75  71  87 SW6       30.05F                  
NEW HAVEN      CLOUDY    78  72  81 VRB3      30.05R                  
CHESTER        CLOUDY   N/A N/A N/A MISG      30.06F                  
MERIDEN        MOCLDY    68  66  93 CALM      30.05S                  
WILLIMANTIC    MOCLDY    69  68  96 CALM      30.06S                  
OXFORD         MOCLDY    68  63  84 NE8       30.08F                  
$$

MEZ002-015-021-024-NHZ003-005-008-011-012-014-VTZ005-008-160500-
NORTHERN NEW ENGLAND
  
CITY           SKY/WX    TMP DP  RH WIND       PRES   REMARKS
PORTLAND ME    MOCLDY    66  66 100 W3        30.02S                  
BANGOR ME      MOCLDY    65  64  97 W3        30.01S                  
CONCORD NH     LGT RAIN  66  66 100 CALM      30.06R                  
MANCHESTER NH  CLOUDY    69  66  90 CALM      30.04S                  
NASHUA NH      MOCLDY    67  67 100 CALM      30.05F                  
PORTSMOUTH NH  MOCLDY    68  66  94 W6        30.05R                  
JAFFREY NH     CLOUDY    67  67 100 CALM      30.10R                  
KEENE NH       LGT RAIN  66  66 100 N3        30.09R                  
BURLINGTON VT  CLOUDY    60  56  86 CALM      30.11R                  
MT. WASHINGTON DRZL/FOG  45  45 100 NW28        N/A  VSB 0            
$$

NYZ052-076-160500-
EASTERN NEW YORK
  
CITY           SKY/WX    TMP DP  RH WIND       PRES   REMARKS
ALBANY         LGT RAIN  62  62 100 CALM      30.11R                  
NEW YORK CITY  MOCLDY    76  66  71 N6        30.03S                  
$$
 
ANZALL-160500-
MARINE OBSERVATIONS
  
STATION/POSITION TIME  TEMP    WIND        PRES    VSBY  WAVE
                       AIR SEA DIR/SP/G                  HT/PER
                 (UTC) (F)     (DEG/KT/KT) (MB)    (MI)  (FT/S)
BOSTON BUOY      0340      65  240/  6/  8 1017.7R
BUZZARDS BAY     0300          210/ 16/ 17 1018.8R
NANTUCKET SOUND  0340   73 72  210/ 12/ 16 1018.4R
MASS BAY-STELLWA 0304   68     210/  6/  8 1016.5R  1 7/8  2/ 5
ISLE OF SHOALS   0300   69     270/  9/  9 1016.4R
S OF BLOCK IS    0326      69                N/A           4/ 6
$$

......................KEY.........................
  SKY/WX - SKY CONDITION/PRESENT WEATHER
  TMP    - TEMPERATURE IN FAHRENHEIT
  DWPT   - DEWPOINT IN FAHRENHEIT
  RH     - RELATIVE HUMIDITY IN PERCENT
  WIND   - DIRECTION AND SPEED IN MPH
  PRES   - MEAN SEA LEVEL PRESSURE IN INCHES OF HG
  WCI    - WIND CHILL INDEX
  VSB    - VISIBILITY IN MILES
  HX     - HEAT INDEX
  TC     - TEMPERATURE IN CELSIUS
  VRB    - VARIABLE WIND DIRECTION
  N/A    - NOT AVAILABLE
  
      

Other recent Regional Weather Roundups

Wed Sep 22, 2:04pm

Wed Sep 22, 1:04pm

Wed Sep 22, 12:05pm

Wed Sep 22, 11:04am

Wed Sep 22, 10:04am

Wed Sep 22, 9:04am

Wed Sep 22, 8:04am

Wed Sep 22, 7:04am

Wed Sep 22, 6:04am

Wed Sep 22, 5:04am

Wed Sep 22, 4:04am

Wed Sep 22, 3:04am

Wed Sep 22, 2:04am

Wed Sep 22, 1:04am

Wed Sep 22, 12:04am

Tue Sep 21, 11:04pm

Tue Sep 21, 10:04pm

Tue Sep 21, 9:04pm

Tue Sep 21, 8:04pm

Tue Sep 21, 7:04pm

Tue Sep 21, 6:04pm

Tue Sep 21, 5:04pm

Tue Sep 21, 4:04pm

Tue Sep 21, 3:04pm

Tue Sep 21, 2:04pm

Tue Sep 21, 1:04pm

Tue Sep 21, 12:04pm

Tue Sep 21, 11:04am

Tue Sep 21, 10:04am

Tue Sep 21, 9:04am

Tue Sep 21, 8:04am

Tue Sep 21, 7:04am

Tue Sep 21, 6:04am

Tue Sep 21, 5:04am

Tue Sep 21, 4:04am

Tue Sep 21, 3:04am

Tue Sep 21, 2:04am

Tue Sep 21, 1:04am

Tue Sep 21, 12:04am

Mon Sep 20, 11:04pm

Mon Sep 20, 10:04pm

Mon Sep 20, 9:04pm

Mon Sep 20, 8:04pm

Mon Sep 20, 7:04pm

Mon Sep 20, 6:04pm

Mon Sep 20, 5:04pm

Mon Sep 20, 4:04pm

Mon Sep 20, 3:04pm

Mon Sep 20, 2:04pm

Mon Sep 20, 1:04pm

Mon Sep 20, 12:04pm

Mon Sep 20, 11:04am

Mon Sep 20, 10:04am

Mon Sep 20, 9:04am

Mon Sep 20, 7:04am

Mon Sep 20, 6:04am

Mon Sep 20, 5:04am

Mon Sep 20, 4:04am

Mon Sep 20, 3:04am

Mon Sep 20, 2:04am

Mon Sep 20, 1:04am

Mon Sep 20, 12:04am

Sun Sep 19, 11:04pm

Sun Sep 19, 10:04pm

Sun Sep 19, 9:04pm

Sun Sep 19, 8:04pm

Sun Sep 19, 7:04pm

Sun Sep 19, 6:04pm

Sun Sep 19, 5:04pm

Sun Sep 19, 4:04pm

Sun Sep 19, 3:04pm

Sun Sep 19, 2:05pm

Sun Sep 19, 1:04pm

Sun Sep 19, 12:04pm

Sun Sep 19, 11:04am

Sun Sep 19, 10:05am

Sun Sep 19, 9:04am

Sun Sep 19, 8:04am

Sun Sep 19, 7:04am

Sun Sep 19, 6:04am

Sun Sep 19, 5:04am

Sun Sep 19, 4:04am

Sun Sep 19, 3:04am

Sun Sep 19, 2:04am

Sun Sep 19, 1:04am

Sun Sep 19, 12:04am

Sat Sep 18, 11:05pm

Sat Sep 18, 10:04pm

Sat Sep 18, 9:04pm

Sat Sep 18, 8:04pm

Sat Sep 18, 7:04pm

Sat Sep 18, 6:04pm

Sat Sep 18, 5:04pm

Sat Sep 18, 4:04pm

Sat Sep 18, 3:04pm

Sat Sep 18, 2:04pm

Sat Sep 18, 1:04pm

Sat Sep 18, 12:04pm

Sat Sep 18, 11:04am

Sat Sep 18, 10:04am

Sat Sep 18, 9:04am

Sat Sep 18, 8:04am

Sat Sep 18, 7:04am

Sat Sep 18, 6:04am

Sat Sep 18, 5:04am

Sat Sep 18, 4:04am

Sat Sep 18, 3:04am

Sat Sep 18, 2:04am

Sat Sep 18, 1:04am

Sat Sep 18, 12:04am

Fri Sep 17, 11:04pm

Fri Sep 17, 10:04pm

Fri Sep 17, 9:04pm

Fri Sep 17, 8:04pm

Fri Sep 17, 7:04pm

Fri Sep 17, 6:04pm

Fri Sep 17, 5:04pm

Fri Sep 17, 4:04pm

Fri Sep 17, 3:04pm

Fri Sep 17, 2:04pm

Fri Sep 17, 1:04pm

Fri Sep 17, 12:05pm

Fri Sep 17, 11:04am

Fri Sep 17, 10:04am

Fri Sep 17, 9:04am

Fri Sep 17, 8:04am

Fri Sep 17, 7:04am

Fri Sep 17, 6:04am

Fri Sep 17, 5:04am

Fri Sep 17, 4:04am

Fri Sep 17, 3:04am

Fri Sep 17, 2:04am

Fri Sep 17, 1:04am

Fri Sep 17, 12:04am

Thu Sep 16, 11:04pm

Thu Sep 16, 10:04pm

Thu Sep 16, 9:04pm

Thu Sep 16, 8:04pm

Thu Sep 16, 7:04pm

Thu Sep 16, 6:04pm

Thu Sep 16, 5:04pm

Thu Sep 16, 4:04pm

Thu Sep 16, 3:04pm

Thu Sep 16, 2:04pm

Thu Sep 16, 1:05pm

Thu Sep 16, 12:04pm

Thu Sep 16, 11:05am

Thu Sep 16, 10:05am

Thu Sep 16, 9:04am

Thu Sep 16, 8:04am

Thu Sep 16, 7:04am

Thu Sep 16, 6:04am

Thu Sep 16, 5:04am

Thu Sep 16, 4:04am

Thu Sep 16, 3:04am

Thu Sep 16, 2:04am

Thu Sep 16, 1:04am

Wed Sep 15, 11:04pm

Wed Sep 15, 10:04pm

Wed Sep 15, 9:04pm

Wed Sep 15, 8:04pm

Wed Sep 15, 7:04pm

Wed Sep 15, 6:04pm

Wed Sep 15, 5:05pm

Wed Sep 15, 4:04pm

Wed Sep 15, 3:04pm

Meta data:

ID: 41aef4dd-0ea5-4df8-83f9-55b412b0e1fd
Link: https://api.weather.gov/products/41aef4dd-0ea5-4df8-83f9-55b412b0e1fd